Location: Borea
(45.6167°N, 23.0167°E)
Time: 05:28:44
(UTC+00:00)

Cosmos 2219 Rocket - Pass Details

Date: 03 February 2023
Orbit: 826 x 848 km, 71.0° (Epoch: 29 March)

Event Time Altitude Azimuth Distance (km) Brightness Sun altitude
Rises 18:03:59 0° 206° (SSW) 3,351 5.6 -26.0°
Reaches altitude 10° 18:06:24 10° 207° (SSW) 2,422 4.8 -26.4°
Maximum altitude 18:11:58 83° 295° (WNW) 840 2.1 -27.4°
Enters shadow 18:12:43 68° 9° (N) 895 2.2 -27.5°
